Wind_Speed
3 2 2 1 1 1 1 1 1 1 1 1 1 1 1 1 1 1 1 2 2 3 3 3 3 3 3 3 4 4 4 5 5 5 5 5 5 5 5 5 5 5 5
4 3 3 2 2 2 1 1 1 1 1 1 1 1 1 1 1 1 1 1 2 2 3 3 3 3 3 3 4 4 4 4 5 5 5 5 6 6 6 6 6 6 6
5 4 4 4 3 2 1 1 0 1 1 1 1 1 1 2 2 1 1 1 2 2 2 2 3 3 3 3 3 4 4 4 5 5 5 6 6 6 6 6 6 6 6
6 6 5 4 4 3 2 1 1 1 1 1 1 1 1 1 2 2 1 1 1 2 2 2 3 3 3 3 3 4 4 4 5 5 5 6 6 6 7 7 7 7 7
7 6 5 5 4 3 2 2 1 1 1 1 1 1 1 1 1 2 2 1 1 2 2 3 3 3 3 4 4 4 4 5 5 5 5 6 6 6 7 7 7 7 8
8 7 6 6 5 5 4 3 2 1 1 0 0 1 1 1 1 2 2 2 2 2 2 3 3 3 4 4 4 4 4 5 5 5 5 5 6 6 7 7 7 8 8
9 8 8 7 6 6 5 4 3 2 2 1 1 1 1 1 2 2 2 2 3 3 3 3 3 3 4 4 5 5 5 5 5 6 6 6 7 7 8 8 8 9 9
9 10 9 9 8 8 7 5 5 4 3 3 2 2 2 2 3 3 3 4 3 3 4 4 4 4 5 5 6 6 6 6 7 7 7 8 8 8 9 10 10 10 10
10 10 10 11 10 9 9 8 7 6 5 5 4 4 4 4 4 4 4 5 5 5 5 5 5 5 5 5 5 5 6 7 7 8 8 9 9 9 10 11 11 11 12
10 11 11 12 12 11 10 9 8 8 7 7 6 6 6 6 6 6 6 6 6 6 6 6 6 6 6 6 6 7 7 8 8 9 9 10 11 11 11 12 12 13 13
11 11 11 12 13 12 12 11 10 9 9 8 8 8 8 8 8 8 8 8 8 8 7 7 7 8 8 8 8 9 9 10 10 10 11 11 12 12 13 13 14 14 15
12 12 13 13 13 13 12 12 12 11 10 10 10 9 9 9 9 9 9 9 9 9 10 10 10 10 10 11 11 11 11 12 12 12 13 13 13 14 15 15 16 16 17
11 12 13 14 14 14 13 13 13 13 13 12 12 12 11 12 12 12 11 11 11 12 12 12 12 12 12 13 14 14 14 14 15 15 16 16 16 17 17 17 18 19 19
11 12 13 14 14 14 14 14 14 14 14 15 15 15 15 15 15 15 15 15 15 14 15 15 15 16 16 16 16 17 17 17 18 18 18 18 19 20 20 21 21 21 22
11 12 13 14 15 15 15 15 15 16 16 16 16 17 17 18 18 18 18 18 17 17 18 18 18 19 19 20 19 20 20 20 21 21 21 22 22 23 24 24 24 24 25
10 12 13 14 14 15 16 16 16 17 17 18 18 18 19 20 20 21 21 21 21 20 21 21 21 22 22 22 22 23 24 24 24 24 24 25 26 26 26 27 26 27 28
10 11 11 12 13 15 16 17 18 18 18 19 19 20 20 21 22 22 23 23 23 24 24 24 24 25 26 26 26 26 26 27 27 28 28 28 29 30 30 30 31 31 31
8 9 11 12 14 15 16 17 19 19 20 20 21 22 22 23 24 24 24 24 25 26 27 27 27 27 28 28 28 29 29 30 30 31 31 32 33 33 33 34 34 34 35
10 10 11 13 15 16 17 18 19 20 20 21 22 23 23 24 25 25 25 26 26 27 28 28 29 29 30 30 30 30 31 31 32 33 34 35 35 35 36 36 36 37 38
11 12 13 14 16 17 18 19 20 21 21 22 23 23 24 25 26 25 26 27 27 28 29 29 29 30 30 31 31 32 33 33 34 35 35 36 37 38 38 38 39 39 40
14 14 15 16 18 19 20 21 22 23 23 23 23 24 24 25 26 26 27 27 28 28 29 30 30 30 30 31 32 33 33 34 35 35 36 36 37 38 39 40 40 41 42
15 16 17 17 19 20 21 22 23 24 24 24 24 24 25 26 27 28 28 29 29 30 30 31 31 31 32 33 33 34 35 35 35 36 37 38 39 40 41 42 42 43 43
17 17 18 18 19 19 20 21 22 22 23 24 25 25 26 27 28 29 29 29 30 31 31 32 32 33 34 34 35 36 36 37 37 38 39 39 41 41 42 42 43 43 44
19 19 19 19 20 20 20 21 22 23 23 24 25 26 27 28 28 29 29 30 31 31 32 33 34 35 35 36 37 37 38 38 38 39 40 40 41 41 42 42 43 43 43
20 20 21 21 20 21 22 22 23 24 25 26 27 27 27 27 28 29 30 31 32 33 34 35 36 36 36 36 37 38 38 38 39 39 41 42 41 42 42 43 43 44 45
21 21 22 22 23 23 23 23 24 25 26 26 26 27 27 28 29 30 31 32 33 34 34 35 35 36 36 36 37 38 39 39 39 39 40 41 41 42 42 43 44 45 46
Wind_Direction
220 217 190 173 134 116 89 46 33 36 45 42 47 46 22 359 333 290 253 249 256 251 247 249 250 258 262 262 255 252 251 248 249 244 246 251 251 252 256 260 264 269 272
216 214 207 202 188 172 142 35 33 46 58 55 59 55 21 11 356 314 259 262 259 257 251 250 256 263 263 266 257 251 247 249 250 245 250 257 261 263 265 263 264 270 274
211 210 212 209 204 198 195 239 217 126 125 81 53 43 23 29 20 3 324 286 259 255 251 252 262 266 262 260 256 253 250 253 251 250 254 258 262 263 265 264 266 274 279
208 212 212 207 207 208 219 213 195 165 120 96 56 42 35 38 26 19 0 321 276 261 253 260 265 270 263 260 264 262 260 259 258 258 258 260 263 265 265 267 268 275 279
207 207 206 207 209 215 224 205 181 167 140 97 62 43 35 17 19 14 2 336 287 267 267 275 276 276 265 258 261 264 263 259 259 264 266 265 268 267 265 267 270 276 278
212 211 214 214 214 218 224 225 217 199 181 139 24 2 351 339 323 326 335 318 292 282 272 277 278 273 270 266 263 264 266 266 262 265 268 270 270 267 267 269 271 277 282
217 217 219 220 219 220 221 225 233 229 221 230 256 274 292 293 293 296 307 309 296 291 290 285 281 279 280 275 268 265 263 266 268 267 270 274 273 271 272 273 276 279 283
222 219 222 223 224 224 225 229 234 236 239 249 257 266 271 278 286 287 290 298 296 290 294 294 287 287 288 283 279 269 265 267 270 272 274 276 276 276 275 276 279 281 282
226 221 223 224 227 229 229 232 233 238 243 249 259 263 269 274 277 286 289 293 293 292 290 292 286 288 290 288 277 278 274 272 273 275 277 276 277 278 278 278 279 282 283
232 227 229 229 229 232 234 237 236 240 246 252 258 265 270 275 279 283 285 285 287 288 285 283 279 282 285 285 283 282 282 277 277 279 279 277 276 277 278 279 280 282 284
237 234 233 233 233 233 234 237 239 242 248 253 257 263 268 273 279 284 283 280 280 281 282 281 277 276 279 280 281 279 281 278 278 280 280 280 279 279 281 282 282 282 283
239 235 235 236 233 233 235 239 242 243 248 253 257 261 267 273 278 280 280 279 278 278 277 278 278 274 277 277 276 275 276 275 276 279 279 281 282 282 282 282 281 281 281
243 240 238 238 235 235 238 242 245 246 249 253 256 260 264 269 275 276 275 276 276 277 278 278 276 275 278 277 274 273 273 275 276 277 277 278 280 281 282 282 282 282 281
247 244 243 240 240 240 242 246 246 249 253 256 258 259 263 266 269 270 272 274 275 277 278 278 277 276 274 274 276 275 274 275 276 276 276 278 279 279 279 280 280 281 282
252 250 247 247 244 242 247 250 251 253 256 258 260 261 264 266 266 267 269 272 273 274 276 276 277 277 276 275 275 275 275 276 275 275 275 276 278 279 279 279 280 280 280
257 253 252 249 248 249 250 252 252 255 258 261 263 266 266 267 266 266 267 269 270 272 275 276 276 277 277 276 276 276 275 275 275 275 275 275 276 278 277 276 278 280 280
263 258 255 255 255 256 253 254 257 259 262 264 266 268 268 268 267 269 270 270 270 271 272 274 274 275 275 276 276 276 276 276 275 274 276 276 276 276 276 276 277 278 279
271 267 262 261 262 263 262 262 263 263 266 268 267 268 268 269 270 270 272 270 270 271 272 272 274 276 275 276 275 276 276 275 275 276 276 277 278 277 277 277 278 279 279
278 274 270 267 266 266 266 266 267 267 269 271 271 272 271 270 269 271 271 271 272 273 274 273 274 275 276 274 275 276 276 275 275 276 276 277 277 278 278 278 278 279 279
281 278 275 271 269 269 268 269 270 269 270 273 273 275 274 273 272 272 273 273 274 275 275 274 275 276 277 276 276 277 277 277 277 276 277 277 277 277 278 277 277 278 278
283 281 280 276 273 272 271 273 274 273 270 273 275 277 279 276 275 276 274 275 276 277 278 278 278 278 278 278 277 277 278 279 278 278 278 278 278 278 278 277 278 278 279
288 284 282 280 276 273 273 274 275 275 274 274 275 278 277 277 278 277 276 276 278 280 281 282 281 280 280 280 279 278 279 280 280 280 280 280 279 278 278 279 279 279 280
286 285 283 281 279 277 277 276 275 276 277 276 276 279 280 280 279 279 278 277 278 280 280 280 281 281 281 280 280 279 280 281 280 281 282 282 281 279 280 280 279 280 281
287 285 284 283 281 279 280 280 278 277 279 280 281 282 281 281 281 281 280 280 279 280 281 282 283 282 282 281 281 281 282 282 282 283 283 283 282 281 281 281 280 280 281
289 286 286 283 284 282 280 280 279 279 280 280 282 283 283 283 282 282 282 283 283 283 283 283 283 283 282 281 282 282 282 282 283 283 283 283 283 282 282 282 281 281 281
288 286 285 283 284 283 283 283 283 283 283 283 284 285 285 285 284 284 284 284 284 284 285 285 285 285 285 284 284 283 283 283 284 284 283 283 284 283 283 282 281 282 283
Height
5895 5896 5897 5897 5898 5899 5899 5899 5900 5900 5900 5900 5900 5900 5901 5901 5901 5901 5901 5901 5902 5902 5902 5903 5903 5903 5904 5904 5904 5904 5905 5905 5906 5906 5907 5907 5908 5908 5909 5909 5909 5909 5909
5895 5896 5896 5897 5898 5899 5899 5899 5900 5900 5900 5900 5900 5901 5901 5901 5901 5901 5901 5901 5902 5902 5902 5903 5903 5903 5903 5903 5903 5904 5904 5904 5905 5905 5906 5906 5907 5907 5908 5908 5908 5908 5909
5894 5895 5896 5897 5898 5899 5899 5899 5900 5900 5901 5901 5901 5901 5901 5901 5901 5901 5901 5901 5901 5902 5902 5902 5903 5903 5903 5903 5903 5903 5903 5904 5904 5905 5905 5906 5906 5906 5907 5907 5907 5908 5908
5894 5895 5896 5897 5898 5899 5899 5899 5900 5900 5901 5901 5901 5901 5901 5901 5901 5901 5901 5901 5901 5902 5902 5902 5902 5902 5902 5903 5903 5903 5903 5903 5904 5904 5904 5905 5905 5905 5906 5906 5906 5906 5907
5893 5894 5895 5896 5897 5898 5899 5899 5900 5900 5901 5901 5901 5901 5901 5901 5902 5902 5901 5901 5901 5902 5902 5902 5902 5902 5902 5902 5902 5902 5902 5903 5903 5903 5903 5904 5904 5904 5904 5905 5905 5905 5905
5892 5893 5895 5896 5897 5898 5899 5899 5900 5900 5901 5901 5901 5901 5902 5902 5902 5902 5901 5901 5901 5902 5901 5902 5902 5901 5901 5902 5902 5902 5902 5902 5902 5902 5902 5903 5903 5903 5903 5903 5903 5904 5903
5891 5892 5894 5895 5897 5898 5898 5899 5900 5900 5901 5901 5901 5902 5902 5902 5902 5902 5901 5901 5901 5901 5901 5901 5901 5901 5901 5901 5901 5901 5901 5901 5901 5901 5901 5901 5902 5902 5902 5902 5902 5902 5902
5890 5891 5893 5894 5896 5897 5898 5898 5899 5900 5900 5901 5901 5901 5901 5902 5901 5901 5901 5901 5901 5901 5901 5901 5901 5901 5901 5900 5900 5900 5900 5900 5900 5900 5900 5900 5900 5900 5900 5900 5900 5900 5900
5888 5890 5891 5893 5894 5896 5897 5898 5898 5899 5900 5900 5900 5901 5901 5901 5901 5901 5900 5900 5900 5900 5900 5900 5900 5900 5899 5899 5899 5899 5899 5899 5899 5899 5899 5898 5898 5898 5898 5898 5898 5898 5898
5887 5888 5890 5891 5893 5894 5895 5896 5897 5898 5898 5899 5899 5899 5900 5900 5900 5900 5900 5899 5899 5899 5899 5899 5898 5898 5898 5898 5898 5898 5898 5898 5897 5897 5897 5896 5896 5896 5896 5895 5895 5895 5895
5885 5887 5888 5889 5890 5892 5893 5894 5895 5896 5897 5897 5897 5898 5898 5898 5898 5898 5898 5898 5898 5898 5897 5897 5897 5896 5896 5896 5896 5896 5896 5896 5895 5895 5895 5894 5894 5894 5893 5893 5892 5892 5891
5883 5884 5886 5887 5888 5890 5891 5892 5893 5894 5895 5895 5896 5896 5896 5896 5896 5896 5896 5895 5895 5896 5895 5895 5894 5894 5894 5894 5894 5894 5893 5893 5893 5892 5892 5891 5891 5891 5890 5890 5889 5888 5888
5881 5882 5883 5884 5886 5887 5888 5889 5890 5891 5892 5893 5893 5894 5894 5894 5894 5893 5893 5893 5893 5893 5893 5892 5892 5891 5891 5891 5891 5890 5890 5890 5889 5889 5888 5888 5887 5887 5886 5886 5885 5884 5883
5878 5879 5881 5882 5883 5884 5886 5887 5888 5888 5889 5890 5890 5891 5891 5891 5891 5891 5890 5890 5890 5890 5890 5889 5889 5888 5887 5887 5887 5886 5886 5885 5885 5884 5884 5884 5883 5882 5882 5881 5880 5879 5878
5876 5877 5878 5879 5880 5881 5883 5884 5884 5885 5886 5886 5887 5887 5887 5887 5887 5887 5887 5887 5887 5886 5886 5885 5885 5884 5883 5883 5882 5882 5881 5881 5880 5879 5879 5878 5878 5877 5876 5875 5874 5873 5873
5874 5874 5875 5876 5877 5878 5879 5880 5881 5881 5882 5883 5883 5883 5883 5883 5883 5883 5882 5882 5882 5882 5881 5880 5880 5879 5878 5878 5877 5876 5876 5875 5874 5874 5873 5872 5871 5871 5870 5869 5868 5867 5866
5872 5872 5873 5873 5873 5874 5875 5876 5877 5878 5878 5878 5878 5878 5878 5878 5877 5877 5877 5876 5876 5876 5875 5875 5874 5874 5873 5872 5871 5870 5869 5869 5868 5867 5866 5865 5864 5863 5862 5861 5860 5859 5858
5870 5870 5870 5870 5871 5871 5871 5872 5872 5873 5873 5873 5873 5873 5872 5872 5871 5871 5871 5870 5870 5869 5869 5868 5868 5867 5866 5865 5864 5863 5862 5861 5860 5860 5859 5858 5856 5855 5854 5853 5852 5851 5849
5867 5867 5867 5867 5867 5867 5867 5868 5868 5868 5868 5868 5867 5867 5866 5865 5865 5865 5865 5864 5864 5863 5862 5862 5861 5859 5858 5857 5857 5855 5854 5853 5852 5851 5850 5849 5847 5846 5845 5844 5842 5841 5840
5865 5864 5864 5864 5864 5863 5863 5863 5863 5863 5863 5862 5862 5861 5860 5859 5859 5859 5858 5858 5857 5856 5855 5854 5853 5852 5851 5849 5849 5847 5846 5845 5843 5842 5840 5839 5838 5836 5835 5834 5832 5831 5829
5862 5861 5860 5860 5860 5859 5859 5858 5858 5857 5856 5856 5856 5855 5854 5853 5852 5852 5851 5851 5850 5849 5848 5846 5845 5844 5843 5842 5840 5839 5837 5835 5834 5832 5831 5829 5827 5826 5824 5823 5821 5819 5818
5858 5857 5857 5856 5855 5854 5853 5853 5852 5851 5850 5850 5849 5849 5848 5847 5846 5845 5844 5843 5843 5841 5840 5838 5837 5836 5834 5833 5831 5830 5828 5827 5825 5823 5821 5819 5817 5815 5813 5811 5809 5807 5806
5854 5853 5852 5852 5851 5850 5849 5847 5846 5845 5845 5844 5843 5843 5842 5840 5839 5838 5837 5836 5835 5833 5832 5830 5829 5827 5826 5824 5822 5820 5818 5817 5815 5813 5811 5809 5806 5804 5802 5800 5797 5795 5794
5850 5849 5847 5846 5845 5844 5843 5842 5841 5840 5839 5838 5837 5836 5835 5833 5832 5830 5829 5827 5826 5825 5823 5821 5820 5818 5816 5814 5812 5811 5808 5806 5804 5802 5800 5798 5795 5793 5790 5788 5786 5783 5781
5845 5844 5842 5841 5840 5839 5838 5837 5835 5834 5833 5832 5830 5829 5828 5826 5825 5823 5821 5819 5818 5816 5814 5812 5810 5808 5806 5804 5802 5800 5798 5796 5793 5791 5788 5786 5784 5781 5779 5777 5774 5771 5769
5840 5838 5837 5836 5835 5833 5832 5830 5829 5828 5826 5825 5823 5822 5820 5819 5817 5815 5813 5811 5809 5807 5805 5803 5800 5798 5796 5794 5791 5789 5787 5785 5782 5780 5777 5775 5772 5769 5767 5764 5761 5759 5756